Ord, NE

1:40 AM CST on February 23, 2018 (GMT -0600)
Sharp

Weather History for KODX - March, 2013

Change the Weather History Date:

Sunday, March 10, 2013

  Actual Average Record
Temperature  
Mean Temperature 23 °F 35 °F  
Max Temperature 31 °F 48 °F 75 °F (2014)
Min Temperature 15 °F 22 °F -2 °F (1998)
Degree Days  
Heating Degree Days 42 30  
Month to date heating degree days 341 316  
Since 1 July heating degree days 5310 5333  
Cooling Degree Days 0 0  
Month to date cooling degree days 0 0  
Year to date cooling degree days 0 0  
Moisture  
Dew Point 18 °F    
Average Humidity 80    
Maximum Humidity 92    
Minimum Humidity 67    
Precipitation  
Precipitation T in 0.02 in 0.50 in (1951)
Month to date precipitation 0.23 0.20  
Year to date precipitation 1.85 1.01  
Sea Level Pressure  
Sea Level Pressure 30.02 in    
Wind  
Wind Speed 25 mph (NNW)    
Max Wind Speed 38 mph    
Max Gust Speed 47 mph    
Visibility 7 miles    
Events Snow    
T = Trace of Precipitation, MM = Missing Value Source: NWS Daily Summary

Daily Weather History Graph

Daily Weather History Graph

Search for Another Location

Airport or City:

Trip Planner

Search our weather history database for the weather conditions in past years. The results will help you decide how hot, cold, wet, or windy it might be!

Date:

Astronomy

Mar. 10, 2013 Rise Set
Actual Time 7:55 AM CDT 7:37 PM CDT
Civil Twilight 7:27 AM CDT 8:04 PM CDT
Nautical Twilight 6:55 AM CDT 8:36 PM CDT
Astronomical Twilight 6:23 AM CDT 9:09 PM CDT
Moon 6:56 AM CDT (3/10) 6:46 PM CDT (3/10)
Length of Visible Light 12h 36m
Length of Day
11h 41m
Waning Crescent, 2% of the Moon is Illuminated
Mar 10
Waning Crescent
Mar 11
New
Mar 19
First Quarter
Mar 27
Full
Apr 2
Last Quarter

Hourly Weather History & Observations

Time (CDT) Temp. Windchill Dew Point Humidity Pressure Visibility Wind Dir Wind Speed Gust Speed Precip Events Conditions
12:15 AM 30.2 °F 15.7 °F 26.6 °F 86% 29.85 in 8.0 mi North 27.6 mph 36.8 mph 0.00 in   Overcast
12:53 AM 30.9 °F 16.9 °F 27.0 °F 85% 29.91 in 4.0 mi North 26.5 mph 36.8 mph 0.00 in Snow Light Snow
1:19 AM 30.2 °F 16.8 °F 26.6 °F 86% 29.86 in 2.5 mi North 23.0 mph 38.0 mph 0.00 in Snow Light Snow
1:31 AM 30.2 °F 15.9 °F 28.4 °F 93% 29.86 in 1.8 mi NNW 26.5 mph 33.4 mph 0.00 in Snow Light Snow
1:53 AM 30.0 °F 17.5 °F 28.0 °F 92% 29.94 in 1.2 mi North 19.6 mph 31.1 mph 0.00 in Snow Light Snow
3:17 AM 30.2 °F 17.1 °F 26.6 °F 86% 29.89 in 2.0 mi NNW 21.9 mph 32.2 mph 0.00 in Snow Light Snow
3:24 AM 28.4 °F 13.0 °F 26.6 °F 93% 29.89 in 1.8 mi NNW 28.8 mph 35.7 mph 0.00 in Snow Light Snow
3:32 AM 28.4 °F 13.5 °F 24.8 °F 86% 29.90 in 2.0 mi NNW 26.5 mph 35.7 mph 0.00 in Snow Light Snow
3:45 AM 26.6 °F 10.3 °F 23.0 °F 86% 29.90 in 2.0 mi North 29.9 mph 40.3 mph 0.00 in Snow Light Snow
3:53 AM 27.0 °F 11.6 °F 21.9 °F 81% 29.98 in 3.0 mi North 26.5 mph 38.0 mph 0.00 in Snow Light Snow
4:34 AM 26.6 °F 10.3 °F 21.2 °F 80% 29.90 in 2.5 mi NNW 29.9 mph 41.4 mph 0.00 in Snow Light Snow
4:41 AM 24.8 °F 7.3 °F 21.2 °F 86% 29.91 in 3.0 mi NNW 32.2 mph 39.1 mph 0.00 in Snow Light Snow
4:53 AM 25.0 °F 8.1 °F 19.9 °F 81% 29.99 in 5.0 mi NNW 29.9 mph 39.1 mph 0.00 in Snow Light Snow
5:00 AM 24.8 °F 7.1 °F 19.4 °F 80% 29.92 in 5.0 mi North 33.4 mph 41.4 mph 0.00 in   Overcast
5:53 AM 23.0 °F 4.6 °F 17.1 °F 78% 30.00 in 10.0 mi North 33.4 mph 44.9 mph 0.00 in   Overcast
6:53 AM 21.2 °F 2.7 °F 15.8 °F 80% 29.95 in 10.0 mi NNW 31.1 mph 40.3 mph N/A   Overcast
7:34 AM 19.4 °F 0.5 °F 14.0 °F 80% 29.97 in 9.0 mi North 29.9 mph 44.9 mph N/A   Overcast
7:53 AM 19.9 °F 2.2 °F 15.1 °F 81% 30.06 in 10.0 mi NNW 26.5 mph 35.7 mph N/A   Overcast
8:29 AM 19.4 °F 2.1 °F 14.0 °F 80% 30.01 in 7.0 mi NNW 24.2 mph 33.4 mph N/A   Overcast
8:51 AM 19.4 °F 1.8 °F 14.0 °F 80% 30.01 in 7.0 mi NNW 25.3 mph 38.0 mph 0.00 in   Overcast
8:53 AM 19.0 °F 0.6 °F 14.0 °F 81% 30.10 in 7.0 mi NNW 27.6 mph 38.0 mph 0.00 in   Overcast
9:53 AM 19.0 °F 0.3 °F 12.9 °F 77% 30.12 in 8.0 mi North 28.8 mph 39.1 mph 0.00 in   Overcast
10:53 AM 19.4 °F 1.1 °F 10.4 °F 68% 30.05 in 10.0 mi NNW 27.6 mph 39.1 mph N/A   Overcast
11:53 AM 21.0 °F 2.7 °F 12.9 °F 71% 30.13 in 9.0 mi NNW 29.9 mph 40.3 mph 0.00 in Snow Light Snow
12:53 PM 21.0 °F 1.9 °F 14.0 °F 74% 30.12 in 8.0 mi NNW 33.4 mph 42.6 mph 0.00 in Snow Light Snow
1:53 PM 24.1 °F 6.6 °F 16.0 °F 71% 30.12 in 10.0 mi NNW 31.1 mph 42.6 mph 0.00 in   Overcast
2:53 PM 23.0 °F 5.7 °F 16.0 °F 74% 30.11 in 9.0 mi NNW 28.8 mph 38.0 mph 0.00 in Snow Light Snow
3:53 PM 24.1 °F 8.0 °F 15.1 °F 69% 30.10 in 10.0 mi NNW 25.3 mph 38.0 mph 0.00 in   Mostly Cloudy
4:53 PM 25.0 °F 8.9 °F 16.0 °F 69% 30.11 in 10.0 mi NNW 26.5 mph 35.7 mph N/A   Mostly Cloudy
5:09 PM 26.6 °F 11.1 °F 17.6 °F 69% 30.02 in 10.0 mi NNW 26.5 mph 38.0 mph N/A   Scattered Clouds
5:36 PM 24.8 °F 9.0 °F 15.8 °F 69% 30.02 in 10.0 mi NNW 25.3 mph 36.8 mph N/A   Mostly Cloudy
5:53 PM 25.0 °F 9.2 °F 16.0 °F 69% 30.11 in 10.0 mi NNW 25.3 mph 33.4 mph N/A   Mostly Cloudy
6:53 PM 24.1 °F 9.4 °F 15.1 °F 69% 30.12 in 10.0 mi NNW 20.7 mph 29.9 mph N/A   Overcast
7:53 PM 21.9 °F 6.5 °F 15.1 °F 75% 30.12 in 10.0 mi NNW 20.7 mph 26.5 mph N/A   Mostly Cloudy
8:06 PM 21.2 °F 5.2 °F 15.8 °F 80% 30.02 in 10.0 mi NNW 21.9 mph 29.9 mph N/A   Scattered Clouds
8:53 PM 21.0 °F 7.6 °F 15.1 °F 78% 30.13 in 10.0 mi NNW 15.0 mph - N/A   Clear
9:53 PM 19.9 °F 6.7 °F 14.0 °F 78% 30.14 in 10.0 mi NNW 13.8 mph - N/A   Clear
10:53 PM 18.0 °F 3.6 °F 12.9 °F 81% 30.12 in 10.0 mi NNW 15.0 mph - N/A   Clear
11:53 PM 17.1 °F 0.6 °F 12.0 °F 81% 30.11 in 10.0 mi NNW 19.6 mph - N/A   Clear
12:53 AM 15.1 °F 2.5 °F 10.9 °F 84% 30.11 in 10.0 mi NNW 10.4 mph - N/A   Clear